Flag for Gaza Strip Weather past 2 weeks in Khan Yunis, Gaza Strip

Now
75 °F

Clear.


Feels Like: 77 °F
Forecast: 63 / 73 °F
Wind: 7 mph from West

Location: El Arish


UV Index: 7 (High)

Visibility: 10 mi


Pressure: 29.86 "Hg

Humidity: 36%

Dew point: 46 °F

Location of Khan YunisLocation

Historic Weather in Khan Yunis

°F

Khan Yunis temperature yesterday

Maximum temperature yesterday: 95 °F (at 4:00 PM)
Minimum temperature yesterday: 57 °F (at 2:00 AM)
Average temperature yesterday: 75 °F

Past Weeks' High & Low Weather Summary

 TemperatureHumidityPressure
High95 °F (Apr 18, 4:00 PM)100% (Apr 4, 6:00 AM)30.12 "Hg (Apr 4, 6:00 AM)
Low48 °F (Apr 11, 7:00 AM)9% (Apr 18, 4:00 PM)29.80 "Hg (Apr 15, 5:00 AM)
Average63 °F76%29.96 "Hg
* Reported Apr 4 5:00 AM — Apr 19 2:00 AM, Khan Yunis, Weather by CustomWeather, © 2014

Note: Actual official high and low records may vary slightly from our data, if they occured in-between our weather recording intervals... More about our weather records

Advertising

Historic Weather Conditions — Data for Previous 24 hours

 ConditionsComfort  
Time TempWeatherWind HumidityBarometerVisibility
2:00 AM
Apr 19
72 °FClear.7 mph19%29.83 "Hg10 mi
1:00 AM75 °FClear.7 mph18%29.83 "Hg10 mi
12:00 AM75 °FClear.5 mph18%29.86 "Hg10 mi
11:00 PM
Apr 18
77 °FClear.9 mph18%29.86 "Hg10 mi
10:00 PM77 °FClear.No wind17%29.86 "Hg10 mi
9:00 PM79 °FClear.5 mph28%29.86 "Hg10 mi
8:00 PM84 °FClear.7 mph14%29.83 "Hg10 mi
4:00 PM95 °FSunny.5 mph9%29.86 "Hg10 mi
3:00 PM93 °FSunny.2 mph10%29.89 "Hg10 mi
2:00 PM91 °FSunny.3 mph10%29.89 "Hg10 mi
1:00 PM90 °FClear.12 mph14%29.89 "Hg4 mi
12:00 PM86 °FClear.10 mph15%29.92 "Hg4 mi
11:00 AM82 °FSandstorm.14 mph26%29.92 "Hg1 mi
10:00 AM77 °FClear.14 mph39%29.92 "Hg4 mi
9:00 AM73 °FSunny.14 mph50%29.92 "Hg10 mi
8:00 AM70 °FSunny.9 mph60%29.92 "Hg10 mi
6:00 AM61 °FClear.5 mph83%29.89 "Hg4 mi
5:00 AM57 °FClear.No wind94%29.89 "Hg4 mi
4:00 AM57 °FClear.No wind100%29.89 "Hg4 mi
Weather by CustomWeather, © 2014

See weather overview